When you browse on this site, cookies collect data to enhance your experience and personalize the content and advertising you see.
Visit our Privacy Policy to learn more. By continuing to use the site, you agree to this use of cookies and data.

Hourly Weather Kagul

Today, 21 September, Monday

Time Temperature Precipitation Wind Pressure Humidity
00:00 +15°C° 0 mm 1 mps 762 mmHg 62%
01:00 +15°C° 0 mm 1 mps 762 mmHg 64%
02:00 +15°C° 0 mm 1 mps 762 mmHg 65%
03:00 +15°C° 0 mm 1 mps 762 mmHg 65%
04:00 +14°C° 0 mm 1 mps 762 mmHg 64%
05:00 +14°C° 0 mm 1 mps 762 mmHg 64%
06:00 +16°C° 0 mm 2 mps 762 mmHg 58%
07:00 +17°C° 0 mm 2 mps 762 mmHg 52%
08:00 +18°C° 0 mm 2 mps 762 mmHg 46%
09:00 +20°C° 0 mm 2 mps 762 mmHg 41%
10:00 +23°C° 0 mm 2 mps 762 mmHg 37%
11:00 +25°C° 0 mm 3 mps 762 mmHg 32%
12:00 +26°C° 0 mm 3 mps 762 mmHg 30%
13:00 +27°C° 0 mm 2 mps 762 mmHg 28%
14:00 +28°C° 0 mm 2 mps 762 mmHg 26%
15:00 +27°C° 0 mm 2 mps 762 mmHg 26%
16:00 +27°C° 0 mm 3 mps 761 mmHg 26%
17:00 +27°C° 0 mm 3 mps 761 mmHg 27%
18:00 +24°C° 0 mm 3 mps 761 mmHg 35%
19:00 +21°C° 0 mm 3 mps 762 mmHg 43%
20:00 +18°C° 0 mm 4 mps 762 mmHg 51%
21:00 +17°C° 0 mm 3 mps 762 mmHg 52%
22:00 +16°C° 0 mm 2 mps 762 mmHg 52%
23:00 +15°C° 0 mm 1 mps 762 mmHg 53%

Tomorrow, 22 September, Tuesday

Time Temperature Precipitation Wind Pressure Humidity
00:00 +15°C° 0 mm 1 mps 762 mmHg 53%
01:00 +13°C° 0 mm 0 mps 762 mmHg 54%
02:00 +13°C° 0 mm 0 mps 762 mmHg 55%
03:00 +13°C° 0 mm 0 mps 762 mmHg 55%
04:00 +12°C° 0 mm 0 mps 762 mmHg 55%
05:00 +13°C° 0 mm 1 mps 762 mmHg 55%
06:00 +15°C° 0 mm 1 mps 762 mmHg 50%
07:00 +18°C° 0 mm 1 mps 762 mmHg 45%
08:00 +19°C° 0 mm 1 mps 762 mmHg 41%
09:00 +20°C° 0 mm 2 mps 762 mmHg 38%
10:00 +23°C° 0 mm 2 mps 762 mmHg 35%
11:00 +25°C° 0 mm 3 mps 762 mmHg 33%
12:00 +26°C° 0 mm 3 mps 762 mmHg 30%
13:00 +27°C° 0 mm 3 mps 761 mmHg 27%
14:00 +28°C° 0 mm 3 mps 761 mmHg 24%
15:00 +27°C° 0 mm 4 mps 761 mmHg 26%
16:00 +27°C° 0 mm 4 mps 760 mmHg 28%
17:00 +26°C° 0 mm 5 mps 760 mmHg 30%
18:00 +23°C° 0 mm 5 mps 760 mmHg 39%
19:00 +20°C° 0 mm 4 mps 760 mmHg 48%
20:00 +18°C° 0 mm 4 mps 760 mmHg 57%
21:00 +17°C° 0 mm 3 mps 760 mmHg 63%
22:00 +16°C° 0 mm 2 mps 760 mmHg 69%
23:00 +15°C° 0 mm 2 mps 760 mmHg 75%

Day after tomorrow, 23 September, Wednesday

Time Temperature Precipitation Wind Pressure Humidity
00:00 +14°C° 0 mm 1 mps 760 mmHg 77%
01:00 +14°C° 0 mm 1 mps 760 mmHg 79%
02:00 +14°C° 0 mm 1 mps 759 mmHg 82%
03:00 +13°C° 0 mm 1 mps 759 mmHg 82%
04:00 +13°C° 0 mm 1 mps 759 mmHg 81%
05:00 +13°C° 0 mm 1 mps 759 mmHg 81%
06:00 +15°C° 0 mm 1 mps 759 mmHg 74%
07:00 +16°C° 0 mm 1 mps 759 mmHg 67%
08:00 +18°C° 0 mm 2 mps 759 mmHg 60%
09:00 +20°C° 0 mm 2 mps 758 mmHg 53%
10:00 +21°C° 0 mm 3 mps 758 mmHg 46%
11:00 +24°C° 0 mm 3 mps 758 mmHg 39%
12:00 +26°C° 0 mm 3 mps 757 mmHg 35%
13:00 +27°C° 0 mm 3 mps 757 mmHg 31%
14:00 +28°C° 0 mm 3 mps 756 mmHg 27%
15:00 +27°C° 0 mm 3 mps 756 mmHg 28%
16:00 +27°C° 0 mm 3 mps 756 mmHg 28%
17:00 +27°C° 0 mm 3 mps 755 mmHg 29%
18:00 +25°C° 0 mm 3 mps 756 mmHg 37%
19:00 +21°C° 0 mm 3 mps 756 mmHg 46%
20:00 +19°C° 0 mm 4 mps 756 mmHg 54%
21:00 +18°C° 0 mm 3 mps 756 mmHg 59%
22:00 +17°C° 0 mm 3 mps 756 mmHg 65%
23:00 +16°C° 0 mm 2 mps 756 mmHg 70%

24 September, Thursday

Time Temperature Precipitation Wind Pressure Humidity
00:00 +16°C° 0 mm 2 mps 756 mmHg 72%
01:00 +16°C° 0 mm 2 mps 756 mmHg 74%
02:00 +15°C° 0 mm 1 mps 756 mmHg 76%
03:00 +15°C° 0 mm 1 mps 756 mmHg 78%
04:00 +15°C° 0 mm 1 mps 756 mmHg 80%
05:00 +15°C° 0 mm 1 mps 756 mmHg 81%
06:00 +16°C° 0 mm 1 mps 756 mmHg 77%
07:00 +17°C° 0 mm 2 mps 756 mmHg 74%
08:00 +19°C° 0 mm 2 mps 756 mmHg 70%
09:00 +21°C° 0 mm 2 mps 756 mmHg 61%
10:00 +24°C° 0 mm 2 mps 756 mmHg 52%
11:00 +26°C° 0 mm 2 mps 756 mmHg 44%
12:00 +27°C° 0 mm 2 mps 756 mmHg 41%
13:00 +28°C° 0 mm 2 mps 756 mmHg 37%
14:00 +29°C° 0 mm 2 mps 755 mmHg 34%
15:00 +29°C° 0 mm 2 mps 755 mmHg 35%
16:00 +29°C° 0 mm 2 mps 755 mmHg 36%
17:00 +29°C° 0 mm 1 mps 755 mmHg 37%
18:00 +27°C° 0 mm 2 mps 755 mmHg 44%
19:00 +24°C° 0 mm 2 mps 756 mmHg 52%
20:00 +21°C° 0 mm 2 mps 756 mmHg 60%
21:00 +20°C° 0 mm 2 mps 756 mmHg 66%
22:00 +20°C° 0 mm 2 mps 756 mmHg 73%
23:00 +20°C° 0 mm 1 mps 756 mmHg 79%

25 September, Friday

Time Temperature Precipitation Wind Pressure Humidity
00:00 +19°C° 0 mm 1 mps 756 mmHg 81%
01:00 +19°C° 0 mm 1 mps 756 mmHg 83%
02:00 +17°C° 0 mm 0 mps 756 mmHg 86%
03:00 +17°C° 0 mm 0 mps 756 mmHg 86%
04:00 +16°C° 0 mm 0 mps 756 mmHg 86%
05:00 +16°C° 0 mm 0 mps 756 mmHg 86%
06:00 +17°C° 0 mm 0 mps 756 mmHg 80%
07:00 +21°C° 0 mm 1 mps 756 mmHg 74%
08:00 +22°C° 0 mm 1 mps 756 mmHg 68%
09:00 +24°C° 0 mm 1 mps 756 mmHg 59%
10:00 +26°C° 0 mm 2 mps 756 mmHg 51%
11:00 +28°C° 0 mm 2 mps 756 mmHg 42%
12:00 +29°C° 0 mm 2 mps 755 mmHg 38%
13:00 +29°C° 0 mm 3 mps 755 mmHg 35%
14:00 +30°C° 0 mm 3 mps 754 mmHg 32%
15:00 +30°C° 0 mm 3 mps 754 mmHg 33%
16:00 +30°C° 0 mm 3 mps 754 mmHg 34%
17:00 +29°C° 0 mm 3 mps 754 mmHg 35%
18:00 +27°C° 0 mm 4 mps 754 mmHg 42%
19:00 +25°C° 0 mm 4 mps 754 mmHg 50%
20:00 +22°C° 0 mm 5 mps 754 mmHg 58%
21:00 +21°C° 0 mm 4 mps 754 mmHg 64%
22:00 +20°C° 0 mm 4 mps 754 mmHg 69%
23:00 +19°C° 0 mm 3 mps 754 mmHg 75%

26 September, Saturday

Time Temperature Precipitation Wind Pressure Humidity
00:00 +19°C° 0 mm 3 mps 753 mmHg 77%
01:00 +19°C° 0 mm 3 mps 753 mmHg 79%
02:00 +19°C° 0 mm 3 mps 753 mmHg 81%
03:00 +19°C° 0 mm 3 mps 752 mmHg 82%
04:00 +18°C° 0 mm 3 mps 752 mmHg 83%
05:00 +18°C° 0 mm 3 mps 752 mmHg 85%
06:00 +20°C° 0 mm 4 mps 752 mmHg 79%
07:00 +21°C° 0 mm 4 mps 752 mmHg 73%
08:00 +22°C° 0 mm 5 mps 751 mmHg 67%
09:00 +26°C° 0 mm 6 mps 751 mmHg 57%
10:00 +28°C° 0 mm 7 mps 751 mmHg 46%
11:00 +32°C° 0 mm 8 mps 751 mmHg 36%
12:00 +33°C° 0 mm 8 mps 751 mmHg 34%
13:00 +34°C° 0 mm 8 mps 750 mmHg 31%
14:00 +34°C° 0 mm 9 mps 750 mmHg 29%
15:00 +33°C° 0 mm 9 mps 750 mmHg 34%
16:00 +31°C° 0 mm 9 mps 749 mmHg 40%
17:00 +29°C° 0 mm 10 mps 749 mmHg 45%
18:00 +27°C° 0 mm 9 mps 749 mmHg 52%
19:00 +26°C° 0 mm 9 mps 750 mmHg 59%
20:00 +23°C° 0 mm 9 mps 750 mmHg 66%
21:00 +23°C° 0.1 mm 8 mps 750 mmHg 65%
22:00 +23°C° 0.1 mm 8 mps 750 mmHg 63%
23:00 +24°C° 0.1 mm 8 mps 750 mmHg 61%
Show more